tititudorancea.com
Station Historical Data
 
Daily Summary for September 20, 2018 Units:  Metric    English   Both
« Previous Day
Next Day »
Daily Weekly Monthly Yearly Custom
  Current: High: Low: Average:
Temperature: 11.9 °C -17.8 °C -0.8 °C 2.7 °C
Dew Point: 5.7 °C -17.8 °C -1.8 °C 1.2 °C
Humidity: 66 % Humidity % 66 % 89 %
Wind Speed: 8 km/h 0 km/h 0 km/h 2.6 km/h
Wind Gust: 7.4 km/h 0 km/h - -
Wind:NW - - WNW
Pressure: 1021.6 hPa 0 hPa 1018.2 hPa -
Precipitation: 0.2 mm      
Historical Graphs
 
 
Ararat weather Find more about Weather in Ararat, AU


 



 


Tabular Data for September 20, 2018
Time Temperature Dew Point Pressure Wind Wind Speed Wind Gust Humidity Rainfall Rate (Hourly)
-17.8 °C -17.8 °C 0 hPa Calm     Humidity % 0 mm
00:04 3.3 °C 1.7 °C 1018.2 hPa Calm     89 % 0 mm
00:09 3.2 °C 1.6 °C 1018.2 hPa Calm     89 % 0 mm
00:14 3.2 °C 1.7 °C 1018.2 hPa Calm     90 % 0 mm
00:19 3.2 °C 1.7 °C 1018.2 hPa Calm     90 % 0 mm
00:24 3.3 °C 1.9 °C 1018.2 hPa Calm     91 % 0 mm
00:29 3.3 °C 1.8 °C 1018.5 hPa SW 1.9 km/h   90 % 0 mm
00:34 3.3 °C 1.9 °C 1018.5 hPa Calm     91 % 0 mm
00:39 3.3 °C 1.9 °C 1018.5 hPa Calm     91 % 0 mm
00:44 3.1 °C 1.6 °C 1018.5 hPa Calm     90 % 0 mm
00:49 3 °C 1.7 °C 1018.5 hPa Calm     91 % 0 mm
00:54 3.1 °C 1.7 °C 1018.5 hPa Calm     91 % 0 mm
00:59 3.1 °C 1.8 °C 1018.5 hPa Calm     91 % 0 mm
01:04 3.1 °C 1.8 °C 1018.5 hPa Calm     91 % 0 mm
01:09 3 °C 1.7 °C 1018.5 hPa Calm     91 % 0 mm
01:14 2.8 °C 1.4 °C 1018.8 hPa Calm     91 % 0 mm
01:19 2.7 °C 1.4 °C 1018.5 hPa Calm     91 % 0 mm
01:24 2.6 °C 1.3 °C 1018.5 hPa Calm     91 % 0 mm
01:29 2.4 °C 1.1 °C 1018.5 hPa Calm     91 % 0 mm
01:34 2.3 °C 1 °C 1018.5 hPa Calm     91 % 0 mm
01:39 2.2 °C 0.9 °C 1018.5 hPa Calm     91 % 0 mm
01:44 2.2 °C 0.8 °C 1018.5 hPa Calm     91 % 0 mm
01:49 2.2 °C 1 °C 1018.5 hPa Calm     92 % 0 mm
01:54 2.2 °C 1.1 °C 1018.5 hPa Calm     92 % 0 mm
01:59 2.2 °C 1 °C 1018.5 hPa Calm     92 % 0 mm
02:04 2.2 °C 1.1 °C 1018.5 hPa Calm     92 % 0 mm
02:09 2.2 °C 1.1 °C 1018.2 hPa Calm     92 % 0 mm
02:14 2.1 °C 0.7 °C 1018.2 hPa Calm     91 % 0 mm
02:19 2 °C 0.8 °C 1018.5 hPa Calm     92 % 0 mm
02:24 1.9 °C 0.8 °C 1018.2 hPa Calm     92 % 0 mm
02:29 1.9 °C 0.7 °C 1018.2 hPa Calm     92 % 0 mm
02:34 1.8 °C 0.7 °C 1018.2 hPa Calm     92 % 0 mm
02:39 1.8 °C 0.8 °C 1018.2 hPa Calm     93 % 0 mm
02:44 1.8 °C 0.6 °C 1018.2 hPa Calm     92 % 0 mm
02:49 1.6 °C 0.4 °C 1018.2 hPa Calm     92 % 0 mm
02:54 1.6 °C 0.4 °C 1018.2 hPa Calm     92 % 0 mm
02:59 1.4 °C 0.3 °C 1018.2 hPa Calm     92 % 0 mm
03:04 1.3 °C 0.2 °C 1018.2 hPa Calm     92 % 0 mm
03:09 1.3 °C 0.1 °C 1018.2 hPa Calm     92 % 0 mm
03:14 1.2 °C 0 °C 1018.2 hPa Calm     92 % 0 mm
03:19 1.1 °C -0.1 °C 1018.2 hPa Calm     92 % 0 mm
03:24 1.1 °C -0.1 °C 1018.2 hPa Calm     92 % 0 mm
03:29 1 °C 0 °C 1018.2 hPa Calm     93 % 0 mm
03:34 0.9 °C -0.1 °C 1018.2 hPa Calm     93 % 0 mm
03:39 0.9 °C 0.8 °C 1018.2 hPa Calm     99 % 0 mm
03:44 0.9 °C -0.1 °C 1018.2 hPa Calm     93 % 0 mm
03:49 0.8 °C -0.2 °C 1018.2 hPa Calm     93 % 0 mm
03:54 0.8 °C -0.2 °C 1018.2 hPa Calm     93 % 0 mm
03:59 0.8 °C -0.2 °C 1018.2 hPa Calm     93 % 0 mm
04:04 0.7 °C -0.3 °C 1018.2 hPa Calm     93 % 0 mm
04:09 0.7 °C -0.3 °C 1018.5 hPa Calm     93 % 0 mm
04:14 0.6 °C -0.4 °C 1018.5 hPa Calm     93 % 0 mm
04:19 0.4 °C -0.6 °C 1018.5 hPa Calm     93 % 0 mm
04:24 0.3 °C -0.7 °C 1018.5 hPa Calm     93 % 0 mm
04:29 0.3 °C -0.7 °C 1018.5 hPa North 3.2 km/h 1.1 km/h 93 % 0 mm
04:34 0.2 °C -0.8 °C 1018.5 hPa Calm     93 % 0 mm
04:39 0.3 °C -0.7 °C 1018.8 hPa Calm     93 % 0 mm
04:44 0.3 °C -0.7 °C 1018.8 hPa Calm     93 % 0 mm
04:49 0.3 °C -0.7 °C 1018.8 hPa Calm     93 % 0 mm
04:54 0.2 °C -0.8 °C 1018.8 hPa Calm     93 % 0 mm
04:59 0.2 °C -0.8 °C 1018.8 hPa Calm     93 % 0 mm
05:04 0.2 °C -0.8 °C 1018.8 hPa Calm     93 % 0 mm
05:09 0.1 °C -0.9 °C 1018.8 hPa Calm     93 % 0 mm
05:14 0 °C -1 °C 1018.8 hPa Calm     93 % 0 mm
05:19 -0.1 °C -1.1 °C 1018.8 hPa Calm     93 % 0 mm
05:24 -0.2 °C -1.2 °C 1018.8 hPa Calm     93 % 0 mm
05:29 -0.3 °C -1.3 °C 1018.8 hPa Calm     93 % 0 mm
05:34 -0.4 °C -1.4 °C 1018.8 hPa Calm     93 % 0 mm
05:39 -0.4 °C -1.4 °C 1019.2 hPa Calm     93 % 0 mm
05:44 -0.4 °C -1.4 °C 1019.2 hPa Calm     93 % 0 mm
05:49 -0.5 °C -1.5 °C 1019.2 hPa Calm     93 % 0 mm
05:54 -0.6 °C -1.6 °C 1019.2 hPa Calm     93 % 0 mm
05:59 -0.6 °C -1.6 °C 1019.2 hPa Calm     93 % 0 mm
06:04 -0.6 °C -1.6 °C 1019.2 hPa Calm     93 % 0 mm
06:09 -0.6 °C -1.6 °C 1019.5 hPa Calm     93 % 0 mm
06:14 -0.6 °C -1.6 °C 1019.5 hPa Calm     93 % 0 mm
06:19 -0.7 °C -1.7 °C 1019.5 hPa Calm     93 % 0 mm
06:24 -0.7 °C -1.7 °C 1019.5 hPa Calm     93 % 0 mm
06:29 -0.8 °C -1.8 °C 1019.5 hPa Calm     93 % 0 mm
06:34 -0.6 °C -1.4 °C 1019.9 hPa Calm     94 % 0 mm
06:39 -0.5 °C -1.3 °C 1019.9 hPa Calm     94 % 0 mm
06:44 -0.4 °C -1.3 °C 1019.9 hPa Calm     94 % 0 mm
06:49 -0.3 °C -1.1 °C 1019.9 hPa Calm     94 % 0 mm
06:54 0 °C -0.7 °C 1019.9 hPa Calm     95 % 0.2 mm
06:59 0.4 °C -0.3 °C 1019.9 hPa Calm     95 % 0.2 mm
07:04 0.9 °C 0.2 °C 1020.2 hPa Calm     95 % 0.2 mm
07:09 1.2 °C 0.5 °C 1020.2 hPa SSW 1.9 km/h   95 % 0.2 mm
07:14 1.4 °C 0.7 °C 1020.5 hPa Calm     95 % 0.2 mm
07:19 1.8 °C 1.1 °C 1020.5 hPa SW 3.7 km/h 2.7 km/h 95 % 0.2 mm
07:24 2.4 °C 1.7 °C 1020.5 hPa SW 5.6 km/h 2.7 km/h 95 % 0.2 mm
07:29 3 °C 2.4 °C 1020.5 hPa SW 5.6 km/h 3.9 km/h 96 % 0.2 mm
07:34 3.5 °C 2.9 °C 1020.5 hPa SW 5.6 km/h 2.4 km/h 96 % 0.2 mm
07:39 3.9 °C 3.2 °C 1020.5 hPa SSW 5.6 km/h 3.7 km/h 95 % 0.2 mm
07:44 4.2 °C 3.5 °C 1020.5 hPa SW 5.6 km/h 3.5 km/h 95 % 0.2 mm
07:49 4.5 °C 3.8 °C 1020.5 hPa SW 5.6 km/h 4 km/h 95 % 0.2 mm
07:54 4.9 °C 4.2 °C 1020.5 hPa SW 4.8 km/h 2.6 km/h 95 % 0 mm
07:59 5.3 °C 4.6 °C 1020.5 hPa SW 5.6 km/h 5.3 km/h 95 % 0 mm
08:04 5.6 °C 4.7 °C 1020.5 hPa SW 7.4 km/h 6 km/h 94 % 0 mm
08:09 5.9 °C 5 °C 1020.5 hPa SW 9.3 km/h 7.2 km/h 94 % 0 mm
08:14 6.2 °C 5.2 °C 1020.5 hPa SW 8 km/h 8.4 km/h 93 % 0 mm
08:19 6.6 °C 5.3 °C 1020.5 hPa West 9.3 km/h 6.3 km/h 92 % 0 mm
08:24 6.9 °C 5.4 °C 1020.5 hPa WNW 14.8 km/h 9.2 km/h 90 % 0 mm
08:29 7.3 °C 5.6 °C 1020.5 hPa WNW 14.8 km/h 9.3 km/h 89 % 0 mm
08:34 7.6 °C 5.4 °C 1020.5 hPa NW 14.8 km/h 11.7 km/h 86 % 0 mm
08:39 7.9 °C 5.3 °C 1020.5 hPa NW 16.7 km/h 7.1 km/h 84 % 0 mm
08:42 8 °C 5.4 °C 1020.5 hPa North 11.1 km/h 6.8 km/h 84 % 0 mm
09:34 9.8 °C 4.8 °C 1021.2 hPa NNW 13 km/h 8.2 km/h 71 % 0 mm
09:39 9.9 °C 4.9 °C 1021.2 hPa NNW 14.8 km/h 9.7 km/h 71 % 0 mm
09:44 10.1 °C 5.3 °C 1021.2 hPa NNW 9.7 km/h 6 km/h 72 % 0 mm
09:49 10.6 °C 5.5 °C 1021.6 hPa NNW 9.7 km/h 11.6 km/h 71 % 0 mm
09:54 10.6 °C 5.6 °C 1021.6 hPa NNW 11.3 km/h 9.7 km/h 71 % 0 mm
09:59 10.8 °C 5.2 °C 1021.6 hPa NNW 11.1 km/h 7.9 km/h 68 % 0 mm
10:04 11 °C 5.3 °C 1021.6 hPa NNW 13 km/h 9.5 km/h 68 % 0 mm
10:09 11.1 °C 5.6 °C 1021.6 hPa North 13 km/h 4.8 km/h 69 % 0 mm
10:14 11.4 °C 5.9 °C 1021.6 hPa NNW 9.3 km/h 5.1 km/h 69 % 0 mm
10:19 11.7 °C 6.2 °C 1021.6 hPa North 9.3 km/h 7.2 km/h 69 % 0 mm
10:24 11.7 °C 6.2 °C 1021.6 hPa North 11.3 km/h 6.1 km/h 69 % 0 mm
10:29 11.8 °C 5.7 °C 1021.9 hPa NNW 13 km/h 9.3 km/h 66 % 0 mm
10:34 11.9 °C 5.7 °C 1021.6 hPa NW 8 km/h 7.4 km/h 66 % 0 mm
Ararat Weather
Compliments of Weather Underground - 1.5 mb
Click here to send mail.


ABOUT

Live weather data from Ararat, Victoria, Australia, 3377
Data uploaded from Cumulus every 5 minutes to Weather Underground.
This site then downloads the raw data for formatting and display.
Metric and imperial data can be displayed. Graphs and historical data available.
Includes Sun and Moon times and rain image live from BOM.

Check out Ararat Weather on Facebook, Twitter and Google +

Help support ongoing costs by checking out the ads





Follow @AraratWeather